TimeEDT,TemperatureF,Dew PointF,Humidity,Sea Level PressureIn,VisibilityMPH,Wind Direction,Wind SpeedMPH,Gust SpeedMPH,PrecipitationIn,Events,Conditions,WindDirDegrees,DateUTC
12:15 AM,38.3,31.5,76,29.74,10.0,WSW,11.5,18.4,N/A,,Overcast,240,2013-03-12 04:15:00
12:35 AM,37.9,31.6,78,29.74,10.0,SW,15.0,20.7,N/A,,Overcast,230,2013-03-12 04:35:00
12:55 AM,37.6,31.6,79,29.75,10.0,SW,10.4,20.7,N/A,,Overcast,230,2013-03-12 04:55:00
1:15 AM,37.4,31.8,80,29.75,10.0,SW,10.4,18.4,N/A,,Overcast,230,2013-03-12 05:15:00
1:35 AM,37.6,31.6,79,29.75,10.0,SW,12.7,19.6,N/A,,Overcast,230,2013-03-12 05:35:00
2:15 AM,37.4,31.6,80,29.76,10.0,SW,13.8,18.4,N/A,,Overcast,230,2013-03-12 06:15:00
2:35 AM,37.0,31.8,81,29.77,10.0,WSW,9.2,18.4,N/A,,Overcast,240,2013-03-12 06:35:00
2:55 AM,37.0,31.1,79,29.77,10.0,WSW,10.4,21.9,N/A,,Overcast,250,2013-03-12 06:55:00
3:15 AM,36.9,30.6,78,29.77,10.0,SW,12.7,20.7,N/A,,Overcast,230,2013-03-12 07:15:00
3:35 AM,36.5,30.0,77,29.78,10.0,WSW,11.5,20.7,N/A,,Overcast,240,2013-03-12 07:35:00
3:55 AM,36.5,29.8,77,29.78,10.0,WSW,15.0,20.7,N/A,,Overcast,250,2013-03-12 07:55:00
4:15 AM,36.1,29.7,77,29.78,10.0,WSW,9.2,-,N/A,,Overcast,240,2013-03-12 08:15:00
4:35 AM,36.0,29.8,78,29.78,10.0,WSW,10.4,18.4,N/A,,Overcast,240,2013-03-12 08:35:00
4:55 AM,35.8,29.8,79,29.79,10.0,WSW,12.7,18.4,N/A,,Overcast,250,2013-03-12 08:55:00
5:15 AM,35.6,29.3,78,29.79,10.0,WSW,12.7,17.3,N/A,,Overcast,250,2013-03-12 09:15:00
5:35 AM,35.6,29.1,77,29.79,10.0,WSW,11.5,18.4,N/A,,Overcast,250,2013-03-12 09:35:00
5:55 AM,35.6,29.1,77,29.80,10.0,WSW,10.4,19.6,N/A,,Overcast,250,2013-03-12 09:55:00
6:15 AM,35.2,29.3,79,29.81,10.0,WSW,9.2,16.1,N/A,,Overcast,250,2013-03-12 10:15:00
6:35 AM,35.1,29.3,80,29.82,10.0,WSW,12.7,24.2,N/A,,Overcast,250,2013-03-12 10:35:00
6:55 AM,35.1,29.3,80,29.82,10.0,WSW,13.8,21.9,N/A,,Overcast,250,2013-03-12 10:55:00
7:15 AM,34.2,30.0,85,29.83,4.0,WSW,10.4,17.3,N/A,Snow,Light Snow,250,2013-03-12 11:15:00
7:35 AM,34.7,30.2,84,29.83,7.0,West,6.9,-,N/A,,Overcast,260,2013-03-12 11:35:00
7:55 AM,34.3,29.8,84,29.84,10.0,WSW,9.2,-,N/A,,Overcast,240,2013-03-12 11:55:00
8:15 AM,34.7,29.3,81,29.85,10.0,WSW,9.2,-,N/A,,Overcast,250,2013-03-12 12:15:00
8:35 AM,34.7,29.3,81,29.85,10.0,WSW,10.4,17.3,N/A,,Overcast,240,2013-03-12 12:35:00
8:55 AM,34.7,29.3,81,29.85,10.0,WSW,12.7,16.1,N/A,,Overcast,250,2013-03-12 12:55:00
9:15 AM,34.7,29.1,80,29.86,10.0,WSW,9.2,18.4,N/A,,Overcast,250,2013-03-12 13:15:00
9:35 AM,34.7,29.1,80,29.87,10.0,West,9.2,16.1,N/A,,Overcast,260,2013-03-12 13:35:00
9:55 AM,34.7,28.9,79,29.87,10.0,WSW,12.7,16.1,N/A,,Overcast,250,2013-03-12 13:55:00
10:15 AM,34.7,28.6,78,29.88,10.0,WSW,10.4,16.1,N/A,,Overcast,240,2013-03-12 14:15:00
10:35 AM,34.5,28.9,80,29.88,5.0,WSW,9.2,-,N/A,,Haze,240,2013-03-12 14:35:00
10:55 AM,34.5,28.6,79,29.88,7.0,WSW,11.5,-,N/A,,Overcast,250,2013-03-12 14:55:00
11:15 AM,34.7,28.9,79,29.88,5.0,SW,9.2,-,N/A,,Haze,230,2013-03-12 15:15:00
11:35 AM,34.3,28.4,79,29.89,7.0,WSW,13.8,17.3,N/A,,Overcast,250,2013-03-12 15:35:00
11:55 AM,34.7,28.4,78,29.89,10.0,WSW,12.7,17.3,N/A,,Overcast,240,2013-03-12 15:55:00
12:15 PM,34.7,28.2,77,29.88,10.0,SW,15.0,19.6,N/A,,Overcast,230,2013-03-12 16:15:00
12:35 PM,34.7,28.0,77,29.89,10.0,WSW,12.7,18.4,N/A,,Overcast,250,2013-03-12 16:35:00
12:55 PM,35.1,28.2,76,29.89,10.0,West,10.4,19.6,N/A,,Overcast,260,2013-03-12 16:55:00
1:15 PM,35.1,27.5,74,29.90,10.0,WSW,11.5,21.9,N/A,,Overcast,250,2013-03-12 17:15:00
1:35 PM,34.0,28.4,80,29.90,7.0,SW,9.2,18.4,N/A,,Overcast,230,2013-03-12 17:35:00
1:55 PM,34.0,27.5,77,29.90,10.0,SW,16.1,23.0,N/A,,Overcast,230,2013-03-12 17:55:00
2:15 PM,33.8,26.8,75,29.91,10.0,SW,12.7,20.7,N/A,,Overcast,230,2013-03-12 18:15:00
2:35 PM,34.0,25.9,72,29.90,10.0,WSW,15.0,23.0,N/A,,Overcast,240,2013-03-12 18:35:00
2:55 PM,35.4,25.7,68,29.88,10.0,WSW,13.8,21.9,N/A,,Overcast,250,2013-03-12 18:55:00
3:15 PM,35.6,24.4,64,29.89,10.0,WSW,12.7,21.9,N/A,,Overcast,240,2013-03-12 19:15:00
3:35 PM,35.6,23.9,62,29.89,10.0,West,18.4,29.9,N/A,,Overcast,260,2013-03-12 19:35:00
3:55 PM,35.1,23.5,63,29.90,10.0,WSW,13.8,25.3,N/A,,Overcast,250,2013-03-12 19:55:00
4:15 PM,34.9,23.5,63,29.89,10.0,WSW,12.7,18.4,N/A,,Overcast,240,2013-03-12 20:15:00
4:35 PM,35.1,24.1,64,29.90,10.0,West,12.7,23.0,N/A,,Overcast,270,2013-03-12 20:35:00
4:55 PM,35.2,24.1,64,29.90,10.0,WSW,11.5,18.4,N/A,,Overcast,250,2013-03-12 20:55:00
5:15 PM,34.9,24.6,66,29.91,10.0,West,10.4,17.3,N/A,,Overcast,260,2013-03-12 21:15:00
5:35 PM,34.7,25.0,68,29.91,10.0,West,9.2,-,N/A,,Overcast,260,2013-03-12 21:35:00
5:55 PM,34.7,24.8,67,29.92,10.0,WSW,9.2,18.4,N/A,,Overcast,250,2013-03-12 21:55:00
6:15 PM,34.7,24.8,67,29.91,10.0,WSW,10.4,19.6,N/A,,Overcast,240,2013-03-12 22:15:00
6:35 PM,34.7,24.8,67,29.92,10.0,WSW,11.5,16.1,N/A,,Overcast,250,2013-03-12 22:35:00
6:55 PM,34.7,25.2,68,29.92,10.0,WSW,10.4,-,N/A,,Overcast,240,2013-03-12 22:55:00
7:15 PM,34.7,25.2,68,29.92,10.0,WSW,9.2,-,N/A,,Overcast,240,2013-03-12 23:15:00
7:35 PM,34.7,25.3,69,29.92,10.0,WSW,8.1,-,N/A,,Overcast,240,2013-03-12 23:35:00
7:55 PM,34.9,25.0,67,29.93,10.0,SW,9.2,-,N/A,,Overcast,230,2013-03-12 23:55:00
8:15 PM,34.9,25.2,68,29.93,10.0,WSW,9.2,-,N/A,,Overcast,250,2013-03-13 00:15:00
8:35 PM,35.1,25.5,68,29.93,10.0,WSW,9.2,-,N/A,,Overcast,250,2013-03-13 00:35:00
8:55 PM,34.2,24.8,69,29.93,10.0,WSW,5.8,-,N/A,,Scattered Clouds,240,2013-03-13 00:55:00
9:15 PM,33.8,24.8,70,29.94,10.0,WSW,6.9,-,N/A,,Clear,240,2013-03-13 01:15:00
9:35 PM,33.4,24.8,71,29.94,10.0,WSW,6.9,-,N/A,,Clear,250,2013-03-13 01:35:00
9:55 PM,32.7,24.8,73,29.94,10.0,WSW,4.6,-,N/A,,Clear,240,2013-03-13 01:55:00
10:15 PM,32.0,24.6,74,29.94,10.0,SW,3.5,-,N/A,,Clear,230,2013-03-13 02:15:00
10:35 PM,32.0,24.3,73,29.94,10.0,SSW,4.6,-,N/A,,Clear,210,2013-03-13 02:35:00
10:55 PM,32.0,23.9,72,29.94,10.0,SSW,5.8,-,N/A,,Scattered Clouds,210,2013-03-13 02:55:00
11:15 PM,32.0,23.9,72,29.93,10.0,SSW,5.8,-,N/A,,Mostly Cloudy,210,2013-03-13 03:15:00
11:35 PM,32.2,23.9,72,29.93,10.0,SW,3.5,-,N/A,,Overcast,220,2013-03-13 03:35:00
11:55 PM,32.7,24.3,71,29.93,10.0,SW,5.8,-,N/A,,Overcast,230,2013-03-13 03:55:00